Weather History for KIKK - October, 2012

Change the Weather History Date:

Wednesday, October 10, 2012

  Actual Average Record
Temperature  
Mean Temperature 42 °F -  
Max Temperature 52 °F - - ()
Min Temperature 32 °F - - ()
Degree Days  
Heating Degree Days 23    
Moisture  
Dew Point 32 °F    
Average Humidity 69    
Maximum Humidity 93    
Minimum Humidity 36    
Precipitation  
Precipitation 0.07 in - - ()
Sea Level Pressure  
Sea Level Pressure 30.11 in    
Wind  
Wind Speed 8 mph (West)    
Max Wind Speed 25 mph    
Max Gust Speed 29 mph    
Visibility 10 miles    
Events Rain    
T = Trace of Precipitation, MM = Missing Value Source: NWS Daily Summary

Daily Weather History Graph

Daily Weather History Graph

Search for Another Location

Airport or City:

Trip Planner

Search our weather history database for the weather conditions in past years. The results will help you decide how hot, cold, wet, or windy it might be!

Date:

Astronomy

Oct. 10, 2012 Rise Set
Actual Time 6:58 AM CDT 6:17 PM CDT
Civil Twilight 6:30 AM CDT 6:45 PM CDT
Nautical Twilight 5:58 AM CDT 7:17 PM CDT
Astronomical Twilight 5:26 AM CDT 7:49 PM CDT
Moon 1:31 AM CDT (10/10) 3:22 PM CDT (10/10)
Length of Visible Light 12h 14m
Length of Day
11h 19m
Waning Crescent, 27% of the Moon is Illuminated
Oct 10
Waning Crescent
Oct 15
New
Oct 21
First Quarter
Oct 29
Full
Nov 6
Last Quarter

Hourly Weather History & Observations

Time (CDT) Temp. Windchill Dew Point Humidity Pressure Visibility Wind Dir Wind Speed Gust Speed Precip Events Conditions
12:15 AM 42.8 °F 39.3 °F 39.6 °F 88% 29.97 in 7.0 mi NW 5.8 mph - 0.03 in Rain Rain
12:35 AM 42.8 °F 38.0 °F 39.9 °F 90% 29.97 in 10.0 mi WNW 8.1 mph - 0.04 in Rain Light Rain
12:55 AM 42.6 °F 39.9 °F 39.6 °F 89% 29.96 in 10.0 mi West 4.6 mph - 0.06 in Rain Light Rain
1:15 AM 42.8 °F 40.1 °F 40.1 °F 90% 29.96 in 10.0 mi WSW 4.6 mph - N/A   Drizzle
1:35 AM 42.4 °F 40.7 °F 39.7 °F 90% 29.97 in 10.0 mi WSW 3.5 mph - N/A   Overcast
1:55 AM 42.4 °F 38.8 °F 40.1 °F 91% 29.97 in 10.0 mi WSW 5.8 mph - N/A   Overcast
2:15 AM 42.1 °F 38.4 °F 39.4 °F 90% 29.97 in 10.0 mi WSW 5.8 mph - N/A   Overcast
2:35 AM 41.2 °F 36.6 °F 38.7 °F 91% 29.97 in 10.0 mi WSW 6.9 mph - N/A   Mostly Cloudy
2:55 AM 40.3 °F 35.5 °F 38.3 °F 93% 29.98 in 10.0 mi WSW 6.9 mph - N/A   Scattered Clouds
3:15 AM 39.9 °F 35.1 °F 37.9 °F 93% 29.98 in 10.0 mi WSW 6.9 mph - N/A   Clear
3:35 AM 40.3 °F 34.9 °F 38.3 °F 93% 29.98 in 10.0 mi West 8.1 mph - N/A   Clear
3:55 AM 40.1 °F 35.3 °F 37.9 °F 92% 29.98 in 10.0 mi West 6.9 mph - N/A   Clear
4:15 AM 40.1 °F 34.7 °F 37.9 °F 92% 29.99 in 10.0 mi West 8.1 mph - N/A   Clear
4:35 AM 39.4 °F 33.8 °F 37.4 °F 93% 30.00 in 10.0 mi West 8.1 mph - N/A   Clear
4:55 AM 38.7 °F 33.6 °F 36.7 °F 93% 30.00 in 10.0 mi West 6.9 mph - 0.01 in   Clear
5:15 AM 37.8 °F 33.3 °F 35.8 °F 93% 30.01 in 10.0 mi West 5.8 mph - N/A   Clear
5:35 AM 37.4 °F 33.8 °F 35.2 °F 92% 30.01 in 10.0 mi West 4.6 mph - N/A   Clear
5:55 AM 37.4 °F 31.4 °F 35.1 °F 91% 30.02 in 10.0 mi West 8.1 mph - N/A   Clear
6:15 AM 36.7 °F 30.5 °F 34.0 °F 90% 30.03 in 10.0 mi West 8.1 mph - N/A   Clear
6:35 AM 36.5 °F 30.3 °F 34.0 °F 91% 30.04 in 10.0 mi West 8.1 mph - N/A   Clear
6:55 AM 36.0 °F 29.0 °F 33.8 °F 92% 30.06 in 10.0 mi West 9.2 mph - N/A   Clear
7:15 AM 36.0 °F 29.0 °F 33.4 °F 91% 30.06 in 10.0 mi West 9.2 mph - N/A   Clear
7:35 AM 36.1 °F 29.3 °F 33.3 °F 89% 30.07 in 10.0 mi West 9.2 mph - N/A   Clear
7:55 AM 37.0 °F 30.4 °F 33.6 °F 87% 30.08 in 10.0 mi West 9.2 mph - N/A   Clear
8:15 AM 38.1 °F 30.7 °F 34.0 °F 85% 30.10 in 10.0 mi West 11.5 mph - N/A   Clear
8:35 AM 39.0 °F 32.8 °F 34.3 °F 83% 30.11 in 10.0 mi West 9.2 mph 16.1 mph N/A   Clear
8:55 AM 40.5 °F 33.6 °F 34.3 °F 79% 30.11 in 10.0 mi West 11.5 mph - N/A   Clear
9:15 AM 41.7 °F 35.2 °F 34.5 °F 76% 30.12 in 10.0 mi West 11.5 mph - N/A   Clear
9:35 AM 42.1 °F 34.9 °F 33.4 °F 71% 30.13 in 10.0 mi West 13.8 mph 19.6 mph N/A   Clear
9:55 AM 42.8 °F 34.8 °F 33.6 °F 70% 30.14 in 10.0 mi West 17.3 mph 23.0 mph N/A   Clear
10:15 AM 43.7 °F 36.6 °F 33.1 °F 66% 30.15 in 10.0 mi West 15.0 mph 19.6 mph N/A   Clear
10:35 AM 44.6 °F 38.4 °F 32.7 °F 63% 30.15 in 10.0 mi WNW 12.7 mph 21.9 mph N/A   Clear
10:55 AM 45.9 °F 38.5 °F 32.2 °F 59% 30.15 in 10.0 mi West 18.4 mph 24.2 mph N/A   Scattered Clouds
11:15 AM 47.3 °F - 31.5 °F 54% 30.16 in 10.0 mi WNW 15.0 mph 24.2 mph N/A   Scattered Clouds
11:35 AM 47.3 °F - 28.2 °F 48% 30.16 in 10.0 mi WNW 13.8 mph 24.2 mph N/A   Scattered Clouds
11:55 AM 48.6 °F - 26.8 °F 43% 30.16 in 10.0 mi West 20.7 mph 26.5 mph N/A   Scattered Clouds
12:15 PM 49.3 °F - 25.5 °F 40% 30.16 in 10.0 mi West 16.1 mph 26.5 mph N/A   Scattered Clouds
12:35 PM 50.9 °F - 25.9 °F 38% 30.16 in 10.0 mi West 17.3 mph 28.8 mph N/A   Scattered Clouds
12:55 PM 50.0 °F - 23.7 °F 36% 30.16 in 10.0 mi WNW 12.7 mph 28.8 mph N/A   Scattered Clouds
1:15 PM 50.5 °F - 24.8 °F 37% 30.15 in 10.0 mi WNW 17.3 mph 26.5 mph N/A   Scattered Clouds
1:35 PM 50.2 °F - 26.6 °F 40% 30.15 in 10.0 mi WNW 16.1 mph 26.5 mph N/A   Scattered Clouds
1:55 PM 50.9 °F - 27.1 °F 40% 30.15 in 10.0 mi West 25.3 mph 28.8 mph N/A   Scattered Clouds
2:15 PM 51.6 °F - 27.5 °F 39% 30.16 in 10.0 mi West 20.7 mph 28.8 mph N/A   Mostly Cloudy
2:35 PM 51.6 °F - 27.9 °F 40% 30.16 in 10.0 mi West 23.0 mph 27.6 mph N/A   Overcast
2:55 PM 49.3 °F - 28.2 °F 44% 30.16 in 10.0 mi West 15.0 mph 24.2 mph N/A   Scattered Clouds
3:15 PM 52.7 °F - 28.8 °F 40% 30.16 in 10.0 mi West 19.6 mph 25.3 mph N/A   Mostly Cloudy
3:35 PM 51.4 °F - 27.3 °F 39% 30.16 in 10.0 mi West 20.7 mph 28.8 mph N/A   Mostly Cloudy
3:55 PM 50.7 °F - 27.9 °F 41% 30.16 in 10.0 mi WNW 11.5 mph 21.9 mph N/A   Scattered Clouds
4:15 PM 51.8 °F - 27.7 °F 39% 30.15 in 10.0 mi WNW 15.0 mph 23.0 mph N/A   Clear
4:35 PM 50.5 °F - 27.5 °F 41% 30.15 in 10.0 mi West 13.8 mph 17.3 mph N/A   Scattered Clouds
4:55 PM 51.8 °F - 27.0 °F 38% 30.15 in 10.0 mi WNW 12.7 mph 21.9 mph N/A   Scattered Clouds
5:15 PM 51.3 °F - 26.4 °F 38% 30.16 in 10.0 mi West 11.5 mph - N/A   Clear
5:35 PM 50.7 °F - 26.2 °F 39% 30.16 in 10.0 mi West 9.2 mph - N/A   Clear
5:55 PM 49.5 °F - 27.9 °F 43% 30.17 in 10.0 mi West 5.8 mph - N/A   Clear
6:15 PM 47.5 °F - 27.9 °F 47% 30.17 in 10.0 mi West 4.6 mph - N/A   Clear
6:35 PM 46.6 °F - 28.4 °F 49% 30.17 in 10.0 mi Calm Calm - N/A   Clear
6:55 PM 44.6 °F - 29.1 °F 55% 30.17 in 10.0 mi Calm Calm - N/A   Clear
7:15 PM 42.3 °F 40.5 °F 29.3 °F 60% 30.18 in 10.0 mi SW 3.5 mph - N/A   Clear
7:35 PM 42.1 °F 40.2 °F 29.3 °F 61% 30.19 in 10.0 mi SW 3.5 mph - N/A   Clear
7:55 PM 41.2 °F - 29.7 °F 64% 30.19 in 10.0 mi Calm Calm - N/A   Clear
8:15 PM 39.2 °F - 30.0 °F 70% 30.20 in 10.0 mi Calm Calm - N/A   Clear
8:35 PM 36.0 °F - 29.5 °F 77% 30.20 in 10.0 mi Calm Calm - N/A   Clear
8:55 PM 36.1 °F 33.5 °F 29.7 °F 77% 30.20 in 10.0 mi SW 3.5 mph - N/A   Clear
9:15 PM 36.0 °F 33.3 °F 29.7 °F 78% 30.21 in 10.0 mi SSW 3.5 mph - N/A   Clear
9:35 PM 37.6 °F - 30.0 °F 74% 30.20 in 10.0 mi Calm Calm - N/A   Clear
9:55 PM 35.6 °F - 29.7 °F 79% 30.21 in 10.0 mi Calm Calm - N/A   Clear
10:15 PM 35.6 °F 32.8 °F 29.7 °F 79% 30.21 in 10.0 mi SW 3.5 mph - N/A   Clear
10:35 PM 35.6 °F 32.8 °F 29.3 °F 78% 30.21 in 10.0 mi SW 3.5 mph - N/A   Clear
10:55 PM 34.9 °F - 29.3 °F 80% 30.21 in 10.0 mi Calm Calm - N/A   Clear
11:15 PM 33.3 °F - 28.8 °F 84% 30.21 in 10.0 mi Calm Calm - N/A   Clear
11:35 PM 32.7 °F 27.3 °F 28.4 °F 84% 30.21 in 10.0 mi South 5.8 mph - N/A   Clear
11:55 PM 32.0 °F 28.7 °F 28.6 °F 87% 30.21 in 10.0 mi South 3.5 mph - N/A   Clear